Location: Columbia
(38.9520°N, 92.3340°W)
Time: 08:56:26
(UTC-05:00)

Tiangong 1 - Visible Passes

Search period start: 28 April 2017 00:00
Search period end: 08 May 2017 00:00
Orbit: 329 x 352 km, 42.8° (Epoch: 26 April)

Date Brightness Start Highest point End Pass type
(mag) Time Alt. Az. Time Alt. Az. Time Alt. Az.
28 Apr 2.7 04:15:54 25° ESE 04:15:54 25° ESE 04:17:15 10° ESE visible
29 Apr 2.7 04:37:44 20° SSE 04:37:44 20° SSE 04:38:53 10° SE visible
01 May 3.3 21:39:49 10° SW 21:40:15 13° SSW 21:40:15 13° SSW visible
02 May 2.8 22:01:02 10° WSW 22:02:13 22° WSW 22:02:13 22° WSW visible
03 May 1.5 20:47:06 10° SW 20:49:44 34° SSE 20:52:21 10° E visible
03 May 3.3 22:22:38 10° W 22:23:42 20° W 22:23:42 20° W visible
04 May 0.7 21:08:12 10° WSW 21:11:03 88° SSE 21:13:27 13° ENE visible
04 May 4.0 22:44:17 10° WNW 22:44:45 13° WNW 22:44:45 13° WNW visible
05 May 1.7 21:29:40 10° W 21:32:25 48° NNW 21:34:09 19° ENE visible
06 May 2.2 21:51:08 10° WNW 21:53:49 35° N 21:54:36 29° NE visible
07 May 1.8 20:36:22 10° W 20:39:09 47° NNW 20:41:54 10° ENE visible
07 May 2.3 22:12:28 10° WNW 22:14:50 35° NNW 22:14:50 35° NNW visible
